Location: Balsareny
(41.8670°N, 1.8830°E)
Time: 10:58:00
(UTC+01:00)

Envisat - Pass Details

Date: 09 December 2021
Orbit: 764 x 766 km, 98.2° (Epoch: 15 January)

Event Time Altitude Azimuth Distance (km) Brightness Sun altitude
Rises 18:01:21 0° 200° (SSW) 3,218 7.0 -7.4°
Reaches altitude 10° 18:04:06 10° 215° (SW) 2,297 6.5 -7.9°
Maximum altitude 18:08:04 23° 267° (W) 1,593 5.7 -8.6°
Drops below altitude 10° 18:12:03 10° 319° (NW) 2,310 5.7 -9.3°
Sets 18:14:50 0° 333° (NNW) 3,241 6.3 -9.8°
